Winfield, KS

4:15 PM CST on December 08, 2019 (GMT -0600)
Strother

Weather History for KWLD - October, 2019

Change the Weather History Date:

Wednesday, October 23, 2019

  Actual Average Record
Temperature  
Mean Temperature 58 °F -  
Max Temperature 72 °F 66 °F 87 °F (2012)
Min Temperature 46 °F 46 °F 28 °F (2006)
Degree Days  
Heating Degree Days 7    
Growing Degree Days 8 (Base 50)    
Moisture  
Dew Point 37 °F    
Average Humidity 47    
Maximum Humidity 63    
Minimum Humidity 31    
Precipitation  
Precipitation 0.00 in - - ()
Sea Level Pressure  
Sea Level Pressure 29.97 in    
Wind  
Wind Speed 9 mph ()    
Max Wind Speed 20 mph    
Max Gust Speed 26 mph    
Visibility 10.0 miles    
Events      
Averages and records for this station are not official NWS values.
T = Trace of Precipitation, MM = Missing Value Source: Averaged Metar Reports

Daily Weather History Graph

Daily Weather History Graph

Search for Another Location

Airport or City:

Astronomy

Oct. 23, 2019 Rise Set
Actual Time 7:43 AM CDT 6:41 PM CDT
Civil Twilight 7:16 AM CDT 7:07 PM CDT
Nautical Twilight 6:46 AM CDT 7:37 PM CDT
Astronomical Twilight 6:16 AM CDT 8:08 PM CDT
Moon 2:13 AM CDT (10/23) 4:23 PM CDT (10/23)
Length of Visible Light 11h 50m
Length of Day
10h 57m
Waning Crescent, 26% of the Moon is Illuminated
Oct 23
Waning Crescent
Oct 27
New
Nov 4
First Quarter
Nov 12
Full
Nov 19
Last Quarter

Hourly Weather History & Observations

Time (CDT) Temp. Windchill Dew Point Humidity Pressure Visibility Wind Dir Wind Speed Gust Speed Precip Events Conditions
12:54 AM 46.0 °F 41.4 °F 34.0 °F 63% 29.97 in 10.0 mi South 9.2 mph - N/A   Clear
1:54 AM 48.0 °F - 35.1 °F 61% 29.95 in 10.0 mi South 10.4 mph - N/A   Clear
2:54 AM 51.1 °F - 33.1 °F 50% 29.94 in 10.0 mi South 11.5 mph - N/A   Clear
4:54 AM 50.0 °F - 33.1 °F 52% 29.94 in 10.0 mi South 9.2 mph - N/A   Clear
5:54 AM 51.1 °F - 33.1 °F 50% 29.92 in 10.0 mi South 13.8 mph 23.0 mph N/A   Clear
6:54 AM 48.9 °F - 34.0 °F 56% 29.93 in 10.0 mi South 11.5 mph - N/A   Clear
7:54 AM 48.9 °F - 34.0 °F 56% 29.92 in 10.0 mi South 10.4 mph - N/A   Clear
8:54 AM 54.0 °F - 36.0 °F 51% 29.93 in 10.0 mi South 12.7 mph - N/A   Clear
9:54 AM 57.9 °F - 37.0 °F 46% 29.94 in 10.0 mi South 11.5 mph 21.9 mph N/A   Clear
10:54 AM 61.0 °F - 37.9 °F 42% 29.95 in 10.0 mi SW 16.1 mph 23.0 mph N/A   Clear
11:54 AM 66.0 °F - 39.0 °F 37% 29.95 in 10.0 mi WSW 19.6 mph 26.5 mph N/A   Clear
12:54 PM 69.1 °F - 39.0 °F 33% 29.94 in 10.0 mi SW 18.4 mph 25.3 mph N/A   Clear
1:54 PM 70.0 °F - 37.9 °F 31% 29.91 in 10.0 mi SW 11.5 mph 18.4 mph N/A   Clear
2:54 PM 70.0 °F - 37.9 °F 31% 29.91 in 10.0 mi West 10.4 mph - N/A   Clear
3:54 PM 70.0 °F - 37.9 °F 31% 29.92 in 10.0 mi Variable 3.5 mph - N/A   Clear
4:54 PM 70.0 °F - 39.0 °F 32% 29.94 in 10.0 mi North 3.5 mph - N/A   Clear
5:54 PM 64.9 °F - 41.0 °F 42% 29.96 in 10.0 mi North 5.8 mph - N/A   Clear
6:54 PM 63.0 °F - 39.9 °F 43% 29.99 in 10.0 mi North 5.8 mph - N/A   Clear
7:54 PM 57.9 °F - 42.1 °F 56% 30.03 in 10.0 mi North 11.5 mph - N/A   Clear
8:54 PM 57.9 °F - 41.0 °F 53% 30.05 in 10.0 mi North 9.2 mph - N/A   Clear
9:54 PM 57.0 °F - 39.9 °F 53% 30.07 in 10.0 mi North 11.5 mph - N/A   Clear
10:54 PM 54.0 °F - 39.0 °F 57% 30.09 in 10.0 mi NNE 8.1 mph - N/A   Clear
11:54 PM 53.1 °F - 39.0 °F 59% 30.10 in 10.0 mi ENE 3.5 mph - N/A   Scattered Clouds